Simultaneous Nadir Overpasses (SNOs) Predictions

Prediction of SNOs between GOES-17 and METOP-B Satellite Orbit:

Table of predicted SNOs for the next 14.0 days since TLE Epoch: 4/22/2023
Index Date Time (GOES-17) GOES-17 Lat,Lon METOP-B Lat,Lon Distance(km) Time Diff (sec)
1 04/23/2023 04:21:42 0.02,-104.72 0.31,-103.31 160.26 80
2 04/24/2023 16:40:33 -0.01,-104.75 0.70,-107.87 355.75 80
3 04/25/2023 16:22:34 -0.01,-104.75 -0.44,-102.88 213.58 80
4 04/27/2023 04:41:33 0.01,-104.72 -0.61,-107.47 313.48 80
5 04/28/2023 04:18:14 0.00,-104.72 0.53,-102.48 255.82 80
6 04/29/2023 16:37:04 -0.00,-104.76 0.52,-107.04 259.99 80
7 04/30/2023 16:19:05 -0.00,-104.76 -0.63,-102.05 309.66 80
8 05/02/2023 04:38:04 0.00,-104.74 -0.41,-106.64 216.77 80
9 05/03/2023 04:14:43 0.00,-104.74 0.68,-101.64 352.80 80
10 05/04/2023 16:33:34 0.00,-104.77 0.35,-106.20 162.92 80
11 05/05/2023 16:15:34 0.00,-104.78 -0.81,-101.21 406.77 80
